sat.trackr.live / text

‹ back to catalog

STARLINK-4539

NORAD 53423 · 2022-097AM

PAYLOAD ACTIVE UNKNOWN

§ Identity

Operator
Country
US
Launch date
2022-08-10
Launch site
AFETR
Launch vehicle
Mass (kg)
RCS (m²)

Purposes: comms

External: N2YO · Heavens-Above · Gunter

§ Orbital elements

Epoch: 2026-05-25T02:50:39.293376Z

Period
95.44 min
Inclination
53.2150°
Eccentricity
0.0001425
Mean motion
15.08808257 rev/d
Perigee alt
538.9 km
Apogee alt
540.8 km
Semi-major
6,918.0 km
B*
3.9429e-4
RAAN
131.0270°
Arg perigee
84.4310°
Mean anomaly
275.6844°
Rev number
21,016

§ Raw data

STARLINK-45391 53423U 22097AM  26145.11851034  .00005987  00000+0  39429-3 0  99962 53423  53.2150 131.0270 0001425  84.4310 275.6844 15.08808257210161

JSON: /api/v1/satellites/53423 · /tle

For live sub-satellite position, see the globe view (requires WebGL).

§ Visibility from observer

Set your observer location to see the next 7 days of passes ≥ 10°. The values pass through the URL so the page stays shareable.

No JS? Fill the form by hand. The geolocation button needs JavaScript.